• Join FlightAware (Why Join?)
  • Login
  • US Flag GB Flag 
06:40 EDT


 

Airport Tracker/Info


-or-


 

Live Flight TrackerFlight Track Log ✈ N400PU ✈ 27-Nov-2012 ✈ KPIA - KLAF

Flight Track Log - Related Links

Times and Time Zones

All times are in EST time to prevent confusion due to time zone crossing. See the N400PU flight status page for this flight to view local times or setup timezone preferences in your user account.

Time Position Orientation Groundspeed Altitude Reporting Facility
EST Latitude Longitude Course Direction KTS MPH feet Rate Location/Type
14:19 40.6967 -89.7525 90° East 224 258 3,700  Level Chicago Center
14:20 40.7550 -89.7883 335° Northwest 243 280 5,500 2,100 Climbing Chicago Center
14:21 40.8219 -89.7614 17° North 273 314 8,000 2,220 Climbing Chicago Center
14:22 40.8639 -89.6711 58° Northeast 300 345 10,000 1,020 Climbing Chicago Center
14:23 40.8558 -89.5475 95° East 339 390 10,100 780 Climbing Chicago Center
14:24 40.8308 -89.4239 105° East 344 396 11,600 1,440 Climbing Chicago Center
14:25 40.6333 -89.2225 90° East  Level FlightAware Approximate
14:25 40.8058 -89.2897 104° East 356 410 13,000  Level Chicago Center
14:26 40.7786 -89.1442 104° East 380 437 13,000  Level Chicago Center
14:27 40.7511 -89.0019 104° East 392 451 13,000  Level Chicago Center
14:28 40.7236 -88.8622 105° East 397 457 13,000  Level Chicago Center
14:29 40.6958 -88.7392 107° East 392 451 13,000  Level Chicago Center
14:30 40.6700 -88.6025 104° East 392 451 13,000  Level Chicago Center
14:31 40.6397 -88.4581 105° East 397 457 13,000  Level Chicago Center
14:32 40.6136 -88.3189 104° East 397 457 13,000 -720 Level Chicago Center
14:33 40.5828 -88.1689 105° East 392 451 11,600 -1,020 Descending Chicago Center
14:34 40.5647 -88.0408 100° East 381 438 11,000 -420 Descending Chicago Center
14:35 40.5486 -87.9128 99° East 361 415 10,800 -900 Descending Chicago Center
14:36 40.5347 -87.8011 99° East 333 383 9,300 -1,500 Descending Chicago Center
14:37 40.5186 -87.6922 101° East 315 362 7,900 -1,440 Descending Chicago Center
14:38 40.5067 -87.5942 99° East 289 333 6,500 -1,440 Descending Chicago Center
14:39 40.4953 -87.5369 105° East 279 321 5,700 -1,320 Descending Chicago Center
14:39 40.4908 -87.5072 101° East 277 319 5,400 -540 Descending Chicago Center
14:40 40.4767 -87.4175 102° East 264 304 5,000 -240 Descending Chicago Center
14:41 40.4669 -87.3331 99° East 221 254 5,000  Level Chicago Center
14:42 40.4553 -87.2625 102° East 210 242 5,000 -180 Level Chicago Center
14:43 40.4433 -87.1864 102° East 208 239 4,700 -480 Descending Chicago Center
14:44 40.4397 -87.1019 93° East 242 278 4,100 -360 Descending Chicago Center
14:45 40.4461 -87.0036 85° East 226 260 4,000 -60 Descending Chicago Center
14:46 40.4508 -86.9325 85° East 216 249 4,000  Level Chicago Center
14:47 40.4536 -86.8669 87° East 184 212 4,000  Level Chicago Center
14:48 40.4564 -86.8039 87° East 178 205 4,000 -420 Level Chicago Center
14:49 40.4606 -86.7219 86° East 188 216 3,200 -720 Descending Chicago Center
14:50 40.4369 -86.6819 128° Southeast 180 207 2,600 -360 Descending Chicago Center
14:51 40.3953 -86.6892 188° South 171 197 2,600  Level Chicago Center
14:52 40.3839 -86.7414 254° West 165 190 2,600  Level Chicago Center